Hourly Data Report for November 02, 2017

All times are specified in Local Standard Time (LST). Add 1 hour to adjust for Daylight Saving Time where and when it is observed.

MAYO A
YUKON TERRITORY

63°36'59.000" N
135°52'06.000" W
503.80 m
2100701
71965
YMA

Download Data

Hourly Data (November 2017)
Hourly Data Report for November 2, 2017
Temp Definition
°C
Dew Point Temp Definition
°C
Rel Hum Definition
%
Wind Dir Definition
10's deg

Wind Spd Definition
km/h
Visibility Definition
km
Stn Press Definition
kPa
Hmdx Definition


Wind Chill Definition


Weather Definition


TIME
00:00 Legend Double Dagger -10.7 -12.1 90 28 4 11.3 97.77   -13 LegendNANA
01:00 Legend Double Dagger -10.4 -11.7 91 24 3 3.2 97.75   -12 Fog
02:00 Legend Double Dagger -10.2 -11.3 91 36 1 1.2 97.72   -11 Fog
03:00 Legend Double Dagger -9.7 -10.9 91 36 3 0.8 97.72   -11 Freezing Fog
04:00 Legend Double Dagger -9.7 -11.0 91 35 6 2.4 97.64   -13 Fog
05:00 Legend Double Dagger -9.7 -11.0 91 36 7 1.6 97.58   -14 Fog
06:00 Legend Double Dagger -10.1 -11.4 90 2 4 2.4 97.53   -12 Fog
07:00 Legend Double Dagger -10.5 -11.8 90 34 9 9.7 97.48   -15 Fog
08:00 Legend Double Dagger -10.5 -11.8 90 36 9 2.4 97.49   -15 Fog
09:00 Legend Double Dagger -10.7 -12.1 90 35 12 2.0 97.40   -17 Fog
10:00 Legend Double Dagger -10.9 -12.3 89 35 12 2.0 97.41   -17 Fog
11:00 Legend Double Dagger -10.6 -11.9 90 36 12 2.0 97.35   -17 Fog
12:00 Legend Double Dagger -9.8 -11.1 90 36 7 3.6 97.31   -14 Snow,Fog
13:00 Legend Double Dagger -9.2 -10.5 91 36 2 6.4 97.30   -10 Snow,Fog
14:00 Legend Double Dagger -8.7 -9.9 91 36 2 6.4 97.18   -10 Snow,Fog
15:00 Legend Double Dagger -8.6 -9.8 91 36 2 6.4 97.14   -10 Snow,Fog
16:00 Legend Double Dagger -8.5 -9.6 91   0 24.1 97.07     Cloudy
17:00 Legend Double Dagger -8.3 -9.5 92 31 3 24.1 97.06   -10 LegendNANA
18:00 Legend Double Dagger -8.4 -9.5 92 36 1 24.1 97.03   -9 LegendNANA
19:00 Legend Double Dagger -8.3 -9.4 92 31 3 24.1 96.97   -10 Cloudy
20:00 Legend Double Dagger -8.2 -9.3 92 23 4 24.1 96.94   -10 LegendNANA
21:00 Legend Double Dagger -8.2 -9.3 92 24 4 24.1 96.87   -10 LegendNANA
22:00 Legend Double Dagger -8.2 -9.3 92 36 2 24.1 96.84   -9 Cloudy
23:00 Legend Double Dagger -8.4 -9.6 91 22 7 24.1 96.75   -12 LegendNANA

Notes on Data Quality.

Legend

  • E = Estimated
  • M = Missing
  • NA = Not Available
  • ‡ = Partner data that is not subject to review by the National Climate Archives
Date modified: